Time,TemperatureF,DewpointF,PressureIn,WindDirection,WindDirectionDegrees,WindSpeedMPH,WindSpeedGustMPH,Humidity,HourlyPrecipIn,Conditions,Clouds,dailyrainin,SoftwareType,DateUTC
2013-03-10 00:02:00,45.0,-99.9,-100.00,WNW,300,15.0,21.0,-999,-99.99,,,-99.99,,2013-03-10 08:02:00,
2013-03-10 01:02:00,44.0,-99.9,-100.00,WNW,298,14.0,18.0,-999,-99.99,,,-99.99,,2013-03-10 09:02:00,
2013-03-10 01:11:00,44.0,-99.9,-100.00,WNW,298,14.0,18.0,-999,-99.99,,,-99.99,,2013-03-10 09:11:00,
2013-03-10 03:02:00,44.0,-99.9,-100.00,NW,317,12.0,15.0,-999,-99.99,,,-99.99,,2013-03-10 10:02:00,
2013-03-10 04:02:00,41.0,-99.9,-100.00,WSW,238,10.0,13.0,-999,-99.99,,,-99.99,,2013-03-10 11:02:00,
2013-03-10 05:02:00,42.0,-99.9,-100.00,SSW,203,6.0,7.0,-999,-99.99,,,-99.99,,2013-03-10 12:02:00,
2013-03-10 06:01:00,41.0,-99.9,-100.00,SE,125,3.0,7.0,-999,-99.99,,,-99.99,,2013-03-10 13:01:00,
2013-03-10 07:02:00,38.0,-99.9,-100.00,South,180,7.0,9.0,-999,-99.99,,,-99.99,,2013-03-10 14:02:00,
2013-03-10 08:01:00,38.0,-99.9,-100.00,SSW,193,9.0,12.0,-999,-99.99,,,-99.99,,2013-03-10 15:01:00,
2013-03-10 09:12:00,37.0,-99.9,-100.00,South,169,9.0,12.0,-999,-99.99,,,-99.99,,2013-03-10 16:12:00,
2013-03-10 12:02:00,43.0,-99.9,-100.00,South,182,6.0,10.0,-999,-99.99,,,-99.99,,2013-03-10 19:02:00,
2013-03-10 12:12:00,43.0,-99.9,-100.00,South,182,6.0,10.0,-999,-99.99,,,-99.99,,2013-03-10 19:12:00,
2013-03-10 15:03:00,51.0,-99.9,-100.00,North,357,3.0,7.0,-999,-99.99,,,-99.99,,2013-03-10 22:03:00,
2013-03-10 15:12:00,51.0,-99.9,-100.00,North,357,3.0,7.0,-999,-99.99,,,-99.99,,2013-03-10 22:12:00,
2013-03-10 16:03:00,51.0,-99.9,-100.00,NNE,29,2.0,3.0,-999,-99.99,,,-99.99,,2013-03-10 23:03:00,
2013-03-10 16:13:00,51.0,-99.9,-100.00,NNE,29,2.0,3.0,-999,-99.99,,,-99.99,,2013-03-10 23:13:00,
2013-03-10 17:03:00,52.0,-99.9,-100.00,East,91,3.0,6.0,-999,-99.99,,,-99.99,,2013-03-11 00:03:00,
2013-03-10 17:13:00,52.0,-99.9,-100.00,East,91,3.0,6.0,-999,-99.99,,,-99.99,,2013-03-11 00:13:00,
2013-03-10 18:03:00,53.0,-99.9,-100.00,ESE,121,5.0,12.0,-999,-99.99,,,-99.99,,2013-03-11 01:03:00,
2013-03-10 18:13:00,53.0,-99.9,-100.00,ESE,121,5.0,12.0,-999,-99.99,,,-99.99,,2013-03-11 01:13:00,
2013-03-10 19:03:00,53.0,-99.9,-100.00,South,176,8.0,12.0,-999,-99.99,,,-99.99,,2013-03-11 02:03:00,
2013-03-10 20:02:00,50.0,-99.9,-100.00,SSE,165,13.0,15.0,-999,-99.99,,,-99.99,,2013-03-11 03:02:00,
2013-03-10 20:13:00,50.0,-99.9,-100.00,SSE,165,13.0,15.0,-999,-99.99,,,-99.99,,2013-03-11 03:13:00,
2013-03-10 21:03:00,50.0,-99.9,-100.00,South,187,8.0,10.0,-999,-99.99,,,-99.99,,2013-03-11 04:03:00,
2013-03-10 21:12:00,50.0,-99.9,-100.00,South,187,8.0,10.0,-999,-99.99,,,-99.99,,2013-03-11 04:12:00,
2013-03-10 22:04:00,50.0,-99.9,-100.00,SW,229,5.0,7.0,-999,-99.99,,,-99.99,,2013-03-11 05:04:00,
2013-03-10 22:12:00,50.0,-99.9,-100.00,SW,229,5.0,7.0,-999,-99.99,,,-99.99,,2013-03-11 05:12:00,
2013-03-10 23:02:00,48.0,-99.9,-100.00,NW,312,14.0,22.0,-999,-99.99,,,-99.99,,2013-03-11 06:02:00,
2013-03-10 23:12:00,48.0,-99.9,-100.00,NW,312,14.0,22.0,-999,-99.99,,,-99.99,,2013-03-11 06:12:00,